B12HU ZBAA-ZHCC

Flight info

Callsign B12HU
Flight time N/A
Altitude 27600
Route RUSDO9Z RUSDO W45 SQ/K0517S0890 B208 NOPIN NOP6U
Aircraft SF50/L-BDGRSWY/LB2U2

Departure

Time N/A
Airport Beijing Capital International Airport (ZBAA)

Arrival

Time 2026-04-24 08:35
Airport Zhengzhou Xinzheng International Airport (ZHCC)
Time Latitude Longitude Altitude Speed Heading
2026-04-24 07:55 36.95203 113.35173 27507 ft 308 kts 198°
2026-04-24 07:56 36.93129 113.34479 27506 ft 310 kts 197°
2026-04-24 07:56 36.91046 113.33788 27502 ft 311 kts 197°
2026-04-24 07:56 36.88956 113.33097 27504 ft 312 kts 197°
2026-04-24 07:56 36.86865 113.32401 27505 ft 312 kts 198°
2026-04-24 07:57 36.84776 113.31708 27504 ft 310 kts 198°
2026-04-24 07:57 36.82698 113.31017 27498 ft 309 kts 199°
2026-04-24 07:57 36.80630 113.30322 27498 ft 308 kts 197°
2026-04-24 07:57 36.78562 113.29647 27497 ft 308 kts 198°
2026-04-24 07:58 36.76486 113.28957 27497 ft 310 kts 198°
2026-04-24 07:58 36.74406 113.28260 27492 ft 311 kts 198°
2026-04-24 07:58 36.72316 113.27568 27494 ft 312 kts 198°
2026-04-24 07:58 36.70227 113.26875 27492 ft 311 kts 198°
2026-04-24 07:59 36.68140 113.26182 27495 ft 310 kts 197°
2026-04-24 07:59 36.66064 113.25503 27493 ft 308 kts 198°
2026-04-24 07:59 36.63998 113.24816 27492 ft 308 kts 198°
2026-04-24 07:59 36.61929 113.24132 27491 ft 309 kts 198°
2026-04-24 08:00 36.59851 113.23447 27495 ft 310 kts 197°
2026-04-24 08:00 36.57770 113.22762 27496 ft 310 kts 197°
2026-04-24 08:00 36.55686 113.22073 27495 ft 311 kts 197°
2026-04-24 08:00 36.53601 113.21387 27493 ft 311 kts 197°
2026-04-24 08:01 36.51510 113.20702 27495 ft 311 kts 197°
2026-04-24 08:01 36.49423 113.20002 27500 ft 311 kts 198°
2026-04-24 08:01 36.47334 113.19317 27502 ft 312 kts 197°
2026-04-24 08:01 36.45239 113.18641 27503 ft 312 kts 198°
2026-04-24 08:02 36.43150 113.17948 27505 ft 312 kts 198°
2026-04-24 08:02 36.41063 113.17256 27503 ft 311 kts 198°
2026-04-24 08:02 36.38974 113.16571 27504 ft 311 kts 198°
2026-04-24 08:02 36.36890 113.15883 27504 ft 310 kts 198°
2026-04-24 08:03 36.34815 113.15205 27505 ft 309 kts 197°
2026-04-24 08:03 36.32733 113.14537 27501 ft 309 kts 198°
2026-04-24 08:03 36.30659 113.13843 27502 ft 311 kts 198°
2026-04-24 08:03 36.28566 113.13155 27503 ft 312 kts 197°
2026-04-24 08:04 36.26462 113.12486 27502 ft 313 kts 196°
2026-04-24 08:04 36.24299 113.12219 27507 ft 316 kts 181°
2026-04-24 08:04 36.22116 113.12575 27503 ft 318 kts 168°
2026-04-24 08:04 36.20026 113.13458 27507 ft 318 kts 162°
2026-04-24 08:05 36.17948 113.14405 27509 ft 320 kts 162°
2026-04-24 08:05 36.15851 113.15334 27510 ft 321 kts 162°
2026-04-24 08:05 36.13759 113.16270 27512 ft 319 kts 162°
2026-04-24 08:05 36.11681 113.17207 27511 ft 318 kts 162°
2026-04-24 08:06 36.09605 113.18141 27512 ft 318 kts 162°
2026-04-24 08:06 36.07525 113.19073 27511 ft 319 kts 163°
2026-04-24 08:06 36.05440 113.20007 27512 ft 320 kts 162°
2026-04-24 08:06 36.03353 113.20945 27519 ft 320 kts 162°
2026-04-24 08:07 36.01265 113.21880 27518 ft 319 kts 162°
2026-04-24 08:07 35.99182 113.22811 27520 ft 319 kts 163°
2026-04-24 08:07 35.97094 113.23746 27524 ft 320 kts 162°
2026-04-24 08:07 35.95008 113.24680 27530 ft 320 kts 162°
2026-04-24 08:08 35.92918 113.25616 27531 ft 320 kts 162°
2026-04-24 08:08 35.90833 113.26545 27530 ft 320 kts 162°
2026-04-24 08:08 35.88744 113.27476 27531 ft 320 kts 162°
2026-04-24 08:09 35.84556 113.29345 27531 ft 321 kts 163°
2026-04-24 08:09 35.82461 113.30278 27532 ft 321 kts 163°
2026-04-24 08:09 35.80368 113.31218 27534 ft 321 kts 163°
2026-04-24 08:09 35.78269 113.32159 27534 ft 322 kts 163°
2026-04-24 08:10 35.76170 113.33098 27535 ft 321 kts 163°
2026-04-24 08:10 35.74074 113.34032 27538 ft 321 kts 163°
2026-04-24 08:10 35.71981 113.34970 27542 ft 321 kts 163°
2026-04-24 08:10 35.69889 113.35905 27543 ft 320 kts 163°
2026-04-24 08:11 35.67799 113.36832 27549 ft 320 kts 163°
2026-04-24 08:11 35.65704 113.37766 27548 ft 321 kts 163°
2026-04-24 08:11 35.63608 113.38704 27548 ft 321 kts 163°
2026-04-24 08:11 35.61509 113.39638 27548 ft 322 kts 163°
2026-04-24 08:12 35.59413 113.40561 27538 ft 320 kts 164°
2026-04-24 08:12 35.57324 113.41479 27539 ft 319 kts 163°
2026-04-24 08:12 35.55242 113.42421 27539 ft 319 kts 164°
2026-04-24 08:12 35.53157 113.43336 27537 ft 319 kts 165°
2026-04-24 08:13 35.51083 113.44254 27533 ft 317 kts 164°
2026-04-24 08:13 35.49014 113.45181 27534 ft 317 kts 164°
2026-04-24 08:13 35.46941 113.46099 27532 ft 318 kts 165°
2026-04-24 08:13 35.44868 113.47013 27539 ft 317 kts 165°
2026-04-24 08:14 35.42799 113.47930 27544 ft 318 kts 164°
2026-04-24 08:14 35.40725 113.48873 27546 ft 319 kts 164°
2026-04-24 08:14 35.38637 113.49818 27325 ft 321 kts 164°
2026-04-24 08:14 35.36558 113.50748 26923 ft 316 kts 164°
2026-04-24 08:15 35.34517 113.51662 26514 ft 310 kts 164°
2026-04-24 08:15 35.32501 113.52568 26104 ft 310 kts 164°
2026-04-24 08:15 35.30468 113.53476 25696 ft 313 kts 164°
2026-04-24 08:15 35.28414 113.54395 25284 ft 316 kts 163°
2026-04-24 08:16 35.26345 113.55323 24862 ft 318 kts 163°
2026-04-24 08:16 35.24272 113.56251 24442 ft 317 kts 163°
2026-04-24 08:16 35.22207 113.57173 24023 ft 317 kts 163°
2026-04-24 08:16 35.20142 113.58098 23607 ft 316 kts 163°
2026-04-24 08:17 35.18081 113.59019 23150 ft 317 kts 163°
2026-04-24 08:17 35.16007 113.59944 22723 ft 318 kts 163°
2026-04-24 08:17 35.13927 113.60872 22302 ft 320 kts 162°
2026-04-24 08:17 35.11834 113.61804 21880 ft 321 kts 162°
2026-04-24 08:18 35.09735 113.62742 21457 ft 322 kts 162°
2026-04-24 08:18 35.07628 113.63677 21025 ft 323 kts 162°
2026-04-24 08:18 35.05512 113.64590 20606 ft 324 kts 162°
2026-04-24 08:18 35.03391 113.65506 20179 ft 324 kts 162°
2026-04-24 08:19 35.01268 113.66434 19753 ft 325 kts 162°
2026-04-24 08:19 34.99142 113.67363 19324 ft 326 kts 162°
2026-04-24 08:19 34.97004 113.68290 18894 ft 327 kts 162°
2026-04-24 08:19 34.94860 113.69217 18463 ft 329 kts 162°
2026-04-24 08:20 34.92707 113.70152 18003 ft 329 kts 162°
2026-04-24 08:20 34.90560 113.71087 17560 ft 328 kts 162°
2026-04-24 08:20 34.88412 113.72017 17119 ft 331 kts 162°
2026-04-24 08:20 34.86238 113.72956 16689 ft 330 kts 162°
2026-04-24 08:21 34.84100 113.73886 16273 ft 325 kts 161°
2026-04-24 08:21 34.81957 113.74645 15835 ft 320 kts 174°
2026-04-24 08:21 34.79794 113.74281 15341 ft 314 kts 205°
2026-04-24 08:21 34.78102 113.72717 14893 ft 304 kts 234°
2026-04-24 08:22 34.77250 113.70435 14465 ft 297 kts 256°
2026-04-24 08:22 34.76818 113.67985 14093 ft 295 kts 260°
2026-04-24 08:22 34.76328 113.65652 13715 ft 275 kts 253°
2026-04-24 08:22 34.75640 113.63601 13294 ft 251 kts 248°
2026-04-24 08:23 34.74925 113.61737 12877 ft 240 kts 247°
2026-04-24 08:23 34.74284 113.59858 12471 ft 243 kts 250°
2026-04-24 08:23 34.73665 113.57954 12087 ft 241 kts 250°
2026-04-24 08:23 34.72874 113.56176 11701 ft 241 kts 235°
2026-04-24 08:24 34.71681 113.54751 11317 ft 242 kts 219°
2026-04-24 08:24 34.70203 113.53797 10947 ft 242 kts 202°
2026-04-24 08:24 34.68563 113.53389 10588 ft 242 kts 185°
2026-04-24 08:24 34.66892 113.53553 10237 ft 240 kts 172°
2026-04-24 08:25 34.65277 113.53371 9850 ft 235 kts 205°
2026-04-24 08:25 34.64035 113.52151 9456 ft 229 kts 228°
2026-04-24 08:25 34.63186 113.50544 9079 ft 228 kts 248°
2026-04-24 08:25 34.62911 113.48677 8703 ft 227 kts 271°
2026-04-24 08:26 34.63339 113.46844 8310 ft 230 kts 297°
2026-04-24 08:26 34.64468 113.45472 7934 ft 235 kts 328°
2026-04-24 08:26 34.66050 113.45026 7565 ft 239 kts
2026-04-24 08:26 34.67651 113.45595 7233 ft 240 kts 24°
2026-04-24 08:27 34.69166 113.46478 6898 ft 245 kts 25°
2026-04-24 08:27 34.70703 113.47300 6562 ft 238 kts 25°
2026-04-24 08:27 34.71899 113.48664 6173 ft 241 kts 63°
2026-04-24 08:27 34.72158 113.50606 5788 ft 233 kts 103°
2026-04-24 08:28 34.71403 113.52225 5384 ft 218 kts 143°
2026-04-24 08:28 34.70101 113.53075 5076 ft 210 kts 160°
2026-04-24 08:28 34.68754 113.53764 4749 ft 212 kts 160°
2026-04-24 08:28 34.67382 113.54462 4432 ft 213 kts 160°
2026-04-24 08:29 34.66044 113.55147 4061 ft 207 kts 159°
2026-04-24 08:29 34.64820 113.55974 3945 ft 195 kts 149°
2026-04-24 08:29 34.63723 113.57026 3937 ft 208 kts 138°
2026-04-24 08:29 34.62807 113.58406 3943 ft 214 kts 126°
2026-04-24 08:30 34.62131 113.60021 3940 ft 217 kts 117°
2026-04-24 08:30 34.61560 113.61706 3940 ft 215 kts 117°
2026-04-24 08:30 34.60989 113.63381 3935 ft 216 kts 117°
2026-04-24 08:30 34.60408 113.65083 3758 ft 219 kts 115°
2026-04-24 08:31 34.59847 113.66763 3490 ft 213 kts 117°
2026-04-24 08:31 34.59278 113.68399 3216 ft 207 kts 115°
2026-04-24 08:31 34.58761 113.69976 2945 ft 200 kts 117°
2026-04-24 08:31 34.58201 113.71523 2682 ft 203 kts 117°
2026-04-24 08:32 34.57667 113.73111 2410 ft 204 kts 115°
2026-04-24 08:32 34.57142 113.74706 2144 ft 204 kts 115°
2026-04-24 08:32 34.56611 113.76275 1869 ft 196 kts 118°
2026-04-24 08:32 34.56105 113.77745 1618 ft 181 kts 115°
2026-04-24 08:33 34.55677 113.79032 1402 ft 152 kts 118°
2026-04-24 08:33 34.55291 113.80150 1210 ft 134 kts 115°
2026-04-24 08:33 34.54985 113.81073 1048 ft 107 kts 118°
2026-04-24 08:33 34.54698 113.81839 929 ft 96 kts 120°
2026-04-24 08:34 34.54426 113.82597 794 ft 94 kts 117°
2026-04-24 08:34 34.54221 113.83332 597 ft 95 kts 118°
2026-04-24 08:34 34.53970 113.84068 520 ft 91 kts 119°
2026-04-24 08:34 34.53744 113.84702 493 ft 70 kts 118°
2026-04-24 08:35 34.53573 113.85167 486 ft 51 kts 113°
2026-04-24 08:35 34.53456 113.85525 487 ft 41 kts 110°
2026-04-24 08:35 34.53355 113.85804 487 ft 32 kts 112°
2026-04-24 08:35 34.53244 113.85969 491 ft 15 kts 137°
2026-04-24 08:36 34.53185 113.86030 495 ft 8 kts 139°
2026-04-24 08:36 34.53155 113.86061 496 ft 4 kts 140°
2026-04-24 08:36 34.53139 113.86078 496 ft 2 kts 139°
2026-04-24 08:36 34.53122 113.86095 489 ft 5 kts 139°
2026-04-24 08:37 34.53087 113.86131 496 ft 8 kts 140°
2026-04-24 08:37 34.53054 113.86162 494 ft 2 kts 313°
2026-04-24 08:37 34.53060 113.86158 495 ft 0 kts 300°
2026-04-24 08:37 34.53062 113.86149 493 ft 8 kts 274°
2026-04-24 08:38 34.53117 113.85971 494 ft 36 kts 291°
2026-04-24 08:38 34.53188 113.85765 495 ft 20 kts 294°
2026-04-24 08:38 34.53229 113.85643 492 ft 3 kts 291°
2026-04-24 08:38 34.53230 113.85636 494 ft 4 kts 272°
2026-04-24 08:39 34.53171 113.85596 495 ft 11 kts 200°
2026-04-24 08:39 34.53106 113.85563 497 ft 9 kts 200°
2026-04-24 08:39 34.53051 113.85535 499 ft 8 kts 202°
2026-04-24 08:39 34.53003 113.85511 499 ft 7 kts 202°
2026-04-24 08:40 34.52955 113.85488 499 ft 7 kts 202°
2026-04-24 08:40 34.52909 113.85465 499 ft 7 kts 201°
2026-04-24 08:40 34.52863 113.85441 499 ft 8 kts 200°
2026-04-24 08:40 34.52811 113.85416 499 ft 9 kts 202°
2026-04-24 08:41 34.52749 113.85385 499 ft 10 kts 202°
2026-04-24 08:41 34.52678 113.85350 499 ft 12 kts 201°
2026-04-24 08:41 34.52620 113.85375 499 ft 8 kts 109°
2026-04-24 08:41 34.52618 113.85384 499 ft 0 kts 113°
2026-04-24 08:42 34.52606 113.85417 499 ft 4 kts 110°
2026-04-24 08:42 34.52602 113.85430 499 ft 0 kts 112°
2026-04-24 08:43 34.52601 113.85434 499 ft 2 kts 112°
2026-04-24 08:43 34.52599 113.85437 499 ft 0 kts 112°
2026-04-24 08:53 0.01359 0.00002 53808 ft 0 kts
2026-04-24 08:54 22.00964 113.37251 22 ft 0 kts 224°
2026-04-24 08:55 22.00964 113.37252 33 ft 0 kts 224°